FW9061 Weather Reports


time (UTC)temp
F
wind
direction
speed
knots
gust
knots
rain 1hr
in
rain 24hr
in
rain mn
in
humidity
%
barometer
mb
20260507105600 51 159 0.0 1.7 0.00 0.00 0.00 87 1020.4
20260507105055 51 164 0.0 0.0 0.00 0.00 0.00 88 1020.7
20260507104553 51 134 0.0 0.0 0.00 0.00 0.00 88 1020.6
20260507104049 51 134 0.0 0.0 0.00 0.00 0.00 89 1020.5
20260507103545 51 134 0.0 0.0 0.00 0.00 0.00 88 1020.5
20260507103042 51 134 0.0 0.0 0.00 0.00 0.00 88 1020.7
20260507102539 51 134 0.0 0.0 0.00 0.00 0.00 88 1020.8
20260507102035 51 134 0.0 0.0 0.00 0.00 0.00 88 1020.6
20260507101530 51 134 0.0 0.0 0.00 0.00 0.00 88 1020.6
20260507101027 51 134 0.0 0.0 0.00 0.00 0.00 88 1020.8
20260507100525 51 134 0.0 0.0 0.00 0.00 0.00 87 1020.6
20260507100023 51 134 0.0 0.0 0.00 0.00 0.00 87 1020.8
20260507095520 51 134 0.9 0.9 0.00 0.00 0.00 87 1020.7
20260507095016 50 144 0.0 0.0 0.00 0.00 0.00 87 1020.6
20260507094513 50 146 0.0 0.0 0.00 0.00 0.00 87 1020.6
20260507094010 50 149 0.0 0.0 0.00 0.00 0.00 87 1020.6
20260507093507 50 149 0.0 1.7 0.00 0.00 0.00 87 1020.6
20260507093006 50 149 0.9 1.7 0.00 0.00 0.00 88 1020.6
20260507092502 50 152 0.0 0.9 0.00 0.00 0.00 89 1020.8
20260507091959 50 166 0.9 1.7 0.00 0.00 0.00 89 1020.6
20260507091455 50 155 0.0 0.9 0.00 0.00 0.00 90 1020.4
20260507090951 50 149 0.0 0.9 0.00 0.00 0.00 90 1020.5
20260507090447 50 151 0.9 0.9 0.00 0.00 0.00 90 1020.5
20260507085944 50 145 0.0 0.0 0.00 0.00 0.00 90 1020.7
20260507085442 50 148 0.0 0.9 0.00 0.00 0.00 90 1020.5
20260507084938 50 147 0.9 0.9 0.00 0.00 0.00 90 1020.5
20260507084435 50 154 0.0 0.0 0.00 0.00 0.00 90 1020.6
20260507083933 50 155 0.0 0.9 0.00 0.00 0.00 90 1020.6
20260507083429 50 149 0.9 2.6 0.00 0.00 0.00 90 1020.6
20260507082925 50 153 0.9 0.9 0.00 0.00 0.00 90 1020.4
20260507082421 50 151 0.0 0.9 0.00 0.00 0.00 90 1020.5
20260507081918 50 161 1.7 2.6 0.00 0.00 0.00 90 1020.6
20260507081414 50 171 0.0 1.7 0.00 0.00 0.00 90 1020.6
20260507080911 50 150 0.9 1.7 0.00 0.00 0.00 90 1020.5
20260507080407 50 146 0.0 2.6 0.00 0.00 0.00 90 1020.4
20260507075902 50 144 0.0 1.7 0.00 0.00 0.00 90 1020.6
20260507075359 50 138 0.0 0.9 0.00 0.00 0.00 90 1020.6
20260507074855 51 138 0.0 0.9 0.00 0.00 0.00 90 1020.5
20260507074353 51 162 0.9 1.7 0.00 0.00 0.00 90 1020.5
20260507073850 51 148 0.0 2.6 0.00 0.00 0.00 90 1020.4
20260507073346 51 195 1.7 2.6 0.00 0.00 0.00 91 1020.4
20260507072843 51 150 0.9 2.6 0.00 0.00 0.00 91 1020.5
20260507072341 51 164 2.6 5.2 0.00 0.00 0.00 91 1020.4
20260507071838 51 145 0.0 1.7 0.00 0.00 0.00 92 1020.2
20260507071335 51 185 1.7 3.5 0.00 0.00 0.00 92 1020.4
20260507070831 51 172 1.7 3.5 0.00 0.00 0.00 92 1020.4
20260507070329 51 178 0.9 3.5 0.00 0.00 0.00 92 1020.3
20260507065825 51 144 0.0 1.7 0.00 0.00 0.00 92 1020.4
20260507065322 51 201 2.6 2.6 0.00 0.00 0.00 92 1020.5
20260507064819 51 194 1.7 3.5 0.00 0.00 0.00 93 1020.4
20260507064318 51 149 0.9 3.5 0.00 0.00 0.00 93 1020.5
20260507063816 51 152 0.9 0.9 0.00 0.00 0.00 93 1020.5
20260507063312 51 157 0.0 1.7 0.00 0.00 0.00 93 1020.4
20260507062809 51 152 0.0 0.9 0.00 0.00 0.00 93 1020.5
20260507062306 51 195 2.6 3.5 0.00 0.00 0.00 92 1020.4
20260507061804 52 151 0.9 2.6 0.00 0.00 0.00 93 1020.4
20260507061302 52 166 0.0 0.9 0.00 0.00 0.00 92 1020.6
20260507060800 52 156 0.9 3.5 0.00 0.00 0.00 92 1020.8
20260507060256 52 175 0.9 2.6 0.00 0.00 0.00 92 1020.6
20260507055752 52 173 1.7 2.6 0.00 0.00 0.00 92 1020.6
20260507055248 52 147 0.9 0.9 0.00 0.00 0.00 92 1020.4
20260507054744 52 167 0.9 1.7 0.00 0.00 0.00 91 1020.5
20260507054241 52 169 0.9 2.6 0.00 0.00 0.00 90 1020.5
20260507053738 52 183 0.9 0.9 0.00 0.00 0.00 90 1020.6
20260507053236 52 154 0.0 5.2 0.00 0.00 0.00 90 1020.7
20260507052735 52 157 1.7 1.7 0.00 0.00 0.00 90 1020.6
20260507052231 52 159 0.9 1.7 0.00 0.00 0.00 89 1020.6
20260507051729 52 161 0.9 0.9 0.00 0.00 0.00 89 1020.7
20260507051225 52 180 0.9 1.7 0.00 0.00 0.00 89 1020.4
20260507050722 53 162 1.7 7.0 0.00 0.00 0.00 88 1020.5
20260507050219 53 209 0.9 3.5 0.00 0.00 0.00 88 1020.5
20260507045716 53 145 0.9 1.7 0.00 0.00 0.00 87 1020.5
20260507045212 53 151 0.9 1.7 0.00 0.00 0.00 87 1020.4
20260507044709 53 154 0.9 2.6 0.00 0.00 0.00 88 1020.5
20260507044206 53 151 0.0 0.0 0.00 0.00 0.00 88 1020.5
20260507043702 53 154 0.9 0.9 0.00 0.00 0.00 88 1020.5
20260507043159 53 155 0.9 0.9 0.00 0.00 0.00 89 1020.4
20260507042656 53 148 0.0 1.7 0.00 0.00 0.00 88 1020.6
20260507042150 53 163 0.9 1.7 0.00 0.00 0.00 87 1020.4
20260507041648 53 141 0.0 2.6 0.00 0.00 0.00 86 1020.5
20260507041144 53 145 0.0 1.7 0.00 0.00 0.00 86 1020.3
20260507040641 54 151 0.9 0.9 0.00 0.00 0.00 85 1020.4
20260507040138 54 165 0.9 1.7 0.00 0.00 0.00 84 1020.5
20260507035633 54 150 0.9 2.6 0.00 0.00 0.00 84 1020.4
20260507035130 54 174 0.0 0.9 0.00 0.00 0.00 83 1020.2
20260507034626 54 143 0.0 0.9 0.00 0.00 0.00 83 1020.4
20260507034124 54 143 0.9 0.9 0.00 0.00 0.00 83 1020.5
20260507033623 54 146 0.0 1.7 0.00 0.00 0.00 83 1020.0
20260507033119 54 124 0.0 0.9 0.00 0.00 0.00 82 1020.3
20260507032617 54 166 1.7 2.6 0.00 0.00 0.00 81 1020.2
20260507032113 55 137 0.0 0.0 0.00 0.00 0.00 81 1020.3
20260507031609 55 146 0.0 0.9 0.00 0.00 0.00 80 1020.1
20260507031106 55 147 0.0 0.9 0.00 0.00 0.00 80 1020.1
20260507030603 55 152 0.9 1.7 0.00 0.00 0.00 79 1020.5
20260507030101 55 178 0.9 5.2 0.00 0.00 0.00 79 1020.0
20260507025558 55 161 0.9 2.6 0.00 0.00 0.00 78 1019.9
20260507025055 55 138 0.0 1.7 0.00 0.00 0.00 78 1019.9
20260507024553 55 139 0.0 2.6 0.00 0.00 0.00 77 1020.0
20260507024049 55 147 0.9 1.7 0.00 0.00 0.00 78 1019.8
20260507023544 55 145 0.9 2.6 0.00 0.00 0.00 77 1019.8
20260507023043 56 150 0.0 2.6 0.00 0.00 0.00 77 1019.6
20260507022539 56 163 0.9 2.6 0.00 0.00 0.00 76 1019.7
20260507022034 56 103 0.9 1.7 0.00 0.00 0.00 77 1019.8
20260507021531 56 176 1.7 2.6 0.00 0.00 0.00 76 1019.8
20260507021027 56 134 0.0 1.7 0.00 0.00 0.00 76 1019.6
20260507020525 56 154 0.0 3.5 0.00 0.00 0.00 76 1019.8
20260507020021 56 144 0.0 0.9 0.00 0.00 0.00 76 1019.7
20260507015520 56 149 0.9 0.9 0.00 0.00 0.00 76 1019.8
20260507015017 56 151 0.0 1.7 0.00 0.00 0.00 77 1020.0
20260507014513 56 141 0.0 0.9 0.00 0.00 0.00 76 1019.9
20260507014009 56 151 0.0 1.7 0.00 0.00 0.00 76 1019.9
20260507013506 56 140 0.0 1.7 0.00 0.00 0.00 76 1020.0
20260507013003 56 136 0.9 2.6 0.00 0.00 0.00 75 1019.9
20260507012500 56 151 0.9 2.6 0.00 0.00 0.00 76 1019.8
20260507011957 56 107 0.0 2.6 0.00 0.00 0.00 76 1019.9
20260507011454 56 145 0.0 3.5 0.00 0.00 0.00 76 1019.8
20260507010949 56 172 1.7 1.7 0.00 0.00 0.00 76 1019.8
20260507010444 56 192 1.7 2.6 0.00 0.00 0.00 76 1019.7
20260507005941 56 145 0.9 0.9 0.00 0.00 0.00 76 1019.9
20260507005438 56 143 0.9 0.9 0.00 0.00 0.00 76 1019.9
20260507004935 56 113 0.0 1.7 0.00 0.00 0.00 76 1020.0
20260507004432 56 184 0.9 1.7 0.00 0.00 0.00 76 1019.9
20260507003929 57 148 1.7 1.7 0.00 0.00 0.00 75 1019.9
20260507003424 57 151 0.9 1.7 0.00 0.00 0.00 75 1020.0
20260507002920 57 149 0.0 0.9 0.00 0.00 0.00 76 1019.9
20260507002416 56 137 0.0 3.5 0.00 0.00 0.00 75 1019.9
20260507001913 56 146 0.9 6.1 0.00 0.00 0.00 75 1020.1
20260507001410 56 154 0.9 0.9 0.00 0.00 0.00 77 1019.7
20260507000907 56 157 1.7 2.6 0.00 0.00 0.00 76 1019.9
20260507000402 56 148 0.9 0.9 0.00 0.00 0.00 77 1020.0
20260506235859 56 152 0.0 0.9 0.00 0.00 0.00 76 1020.0
20260506235356 56 152 0.0 1.7 0.00 0.00 0.00 76 1019.8
20260506234851 56 129 0.0 5.2 0.00 0.00 0.00 76 1019.8
20260506234349 56 135 0.0 0.9 0.00 0.00 0.00 76 1019.9
20260506233847 56 146 0.9 1.7 0.00 0.00 0.00 76 1020.1
20260506233343 56 125 1.7 2.6 0.00 0.00 0.00 76 1020.0
20260506232840 56 143 0.9 2.6 0.00 0.00 0.00 76 1019.8
20260506232336 56 174 1.7 2.6 0.00 0.00 0.00 75 1020.1
20260506231832 56 138 0.9 3.5 0.00 0.00 0.00 74 1020.0
20260506231330 56 165 1.7 2.6 0.00 0.00 0.00 74 1020.0
20260506230827 56 119 0.9 1.7 0.00 0.00 0.00 75 1020.1
20260506230324 56 108 1.7 3.5 0.00 0.00 0.00 74 1020.1
20260506225820 56 135 1.7 5.2 0.00 0.00 0.00 73 1020.2
20260506225318 56 173 0.9 2.6 0.00 0.00 0.00 73 1020.1
20260506224814 56 178 1.7 5.2 0.00 0.00 0.00 73 1019.9
20260506224311 56 198 1.7 2.6 0.00 0.00 0.00 74 1020.1
20260506223808 56 131 0.9 1.7 0.00 0.00 0.00 73 1020.3
20260506223303 56 159 0.9 1.7 0.00 0.00 0.00 74 1020.1
20260506222800 56 185 1.7 2.6 0.00 0.00 0.00 74 1020.0
20260506222256 56 124 2.6 3.5 0.00 0.00 0.00 73 1020.1
20260506221754 57 259 3.5 6.1 0.00 0.00 0.00 72 1020.0
20260506221251 57 125 0.0 3.5 0.00 0.00 0.00 72 1020.2
20260506220749 57 182 0.9 1.7 0.00 0.00 0.00 71 1020.5
20260506220243 57 166 1.7 5.2 0.00 0.00 0.00 70 1020.3
20260506215741 58 91 1.7 3.5 0.00 0.00 0.00 69 1020.3
20260506215236 59 181 1.7 5.2 0.00 0.00 0.00 67 1020.3
20260506214733 59 131 0.0 1.7 0.00 0.00 0.00 68 1020.2
20260506214230 58 147 0.0 1.7 0.00 0.00 0.00 69 1020.4
20260506213728 57 190 0.9 1.7 0.00 0.00 0.00 71 1020.2
20260506213225 57 116 1.7 5.2 0.00 0.00 0.00 71 1020.4
20260506212722 56 181 2.6 3.5 0.00 0.00 0.00 72 1020.1
20260506212218 56 32 0.9 7.0 0.00 0.00 0.00 73 1020.6
20260506211713 56 134 0.0 7.0 0.00 0.00 0.00 72 1020.4
20260506211210 56 142 0.9 3.5 0.00 0.00 0.00 72 1020.3
20260506210707 56 153 0.9 1.7 0.00 0.00 0.00 73 1020.3
20260506210204 56 182 3.5 5.2 0.00 0.00 0.00 72 1020.3
20260506205701 58 106 2.6 3.5 0.00 0.00 0.00 70 1020.2
20260506205156 57 176 0.9 1.7 0.00 0.00 0.00 71 1020.1
20260506204654 57 143 0.0 5.2 0.00 0.00 0.00 72 1020.3
20260506204150 57 154 0.0 0.9 0.00 0.00 0.00 71 1020.2
20260506203648 57 125 0.9 2.6 0.00 0.00 0.00 71 1020.1
20260506203145 58 172 1.7 2.6 0.00 0.00 0.00 70 1020.3
20260506202643 57 143 0.0 0.9 0.00 0.00 0.00 72 1020.0
20260506202139 57 184 0.9 2.6 0.00 0.00 0.00 71 1020.2
20260506201636 57 107 0.0 1.7 0.00 0.00 0.00 71 1020.2
20260506201132 57 134 1.7 2.6 0.00 0.00 0.00 73 1020.2
20260506200629 57 178 1.7 2.6 0.00 0.00 0.00 73 1020.1
20260506200126 56 136 0.9 1.7 0.00 0.00 0.00 74 1020.2
20260506195623 56 153 0.0 2.6 0.00 0.00 0.00 73 1020.2
20260506195119 56 159 1.7 5.2 0.00 0.00 0.00 73 1020.0
20260506194617 56 136 0.0 1.7 0.00 0.00 0.00 74 1019.8
20260506194113 57 172 1.7 2.6 0.00 0.00 0.00 73 1020.0
20260506193611 56 175 0.9 1.7 0.00 0.00 0.00 75 1020.0
20260506193108 56 130 0.0 1.7 0.00 0.00 0.00 76 1020.1
20260506192604 56 150 0.0 0.9 0.00 0.00 0.00 77 1019.9
20260506192100 56 178 0.9 0.9 0.00 0.00 0.00 78 1020.0
20260506191557 55 153 0.0 3.5 0.00 0.00 0.00 79 1019.9
20260506191053 55 150 1.7 2.6 0.00 0.00 0.00 78 1019.9
20260506190550 55 179 0.9 1.7 0.00 0.00 0.00 80 1019.8
20260506190047 55 177 1.7 2.6 0.00 0.00 0.00 79 1019.9
20260506185545 55 155 0.0 1.7 0.00 0.00 0.00 81 1019.6
20260506185041 54 154 0.0 0.9 0.00 0.00 0.00 82 1019.8
20260506184538 54 177 0.0 1.7 0.00 0.00 0.00 83 1020.0
20260506184036 54 126 0.9 2.6 0.00 0.00 0.00 82 1020.1
20260506183531 54 137 0.9 2.6 0.00 0.00 0.00 83 1020.1
20260506183028 54 141 0.0 0.9 0.00 0.00 0.00 84 1019.9
20260506182526 54 93 0.9 1.7 0.00 0.00 0.00 84 1020.0
20260506182023 53 150 0.0 1.7 0.00 0.00 0.00 85 1020.0
20260506181521 54 140 0.0 0.9 0.00 0.00 0.00 85 1020.0
20260506181017 53 171 0.9 1.7 0.00 0.00 0.00 86 1020.1
20260506180514 53 149 0.0 0.9 0.00 0.00 0.00 87 1019.9
20260506180010 53 143 0.0 0.9 0.00 0.00 0.00 88 1019.4
20260506175507 53 153 0.9 3.5 0.00 0.00 0.00 88 1019.6
20260506175003 53 166 1.7 2.6 0.00 0.00 0.00 88 1019.6
20260506174502 53 151 1.7 2.6 0.00 0.00 0.00 88 1019.8
20260506173958 53 154 0.9 0.9 0.00 0.00 0.00 90 1019.7
20260506173456 53 179 0.0 1.7 0.00 0.00 0.00 90 1019.4
20260506172952 53 145 0.0 1.7 0.00 0.00 0.00 91 1019.7
20260506172450 53 127 0.0 1.7 0.00 0.00 0.00 91 1019.9
20260506171946 53 179 0.9 0.9 0.00 0.00 0.00 92 1019.7
20260506171443 53 155 0.9 0.9 0.00 0.00 0.00 93 1019.5
20260506170941 52 151 1.7 1.7 0.00 0.00 0.00 93 1019.8
20260506170437 52 139 0.0 2.6 0.00 0.00 0.00 93 1019.8
20260506165936 52 153 0.9 0.9 0.00 0.00 0.00 94 1019.7
20260506165434 52 151 0.0 0.0 0.00 0.00 0.00 94 1019.7
20260506164930 52 159 0.9 1.7 0.00 0.00 0.00 94 1019.6
20260506164427 52 148 0.9 0.9 0.00 0.00 0.00 93 1019.7
20260506163925 52 157 0.9 1.7 0.00 0.00 0.00 93 1019.7
20260506163425 52 183 0.9 1.7 0.00 0.00 0.00 93 1019.6
20260506162920 52 228 0.9 2.6 0.00 0.00 0.00 93 1019.6
20260506162419 52 144 0.0 0.9 0.00 0.00 0.00 94 1019.3
20260506161916 52 145 0.0 0.9 0.00 0.00 0.00 93 1019.0
20260506161414 52 148 0.9 3.5 0.00 0.00 0.00 93 1019.0
20260506160911 52 172 0.9 2.6 0.00 0.00 0.00 93 1019.0
20260506160408 52 194 1.7 2.6 0.00 0.00 0.00 93 1019.0
20260506155906 52 132 0.0 0.9 0.00 0.00 0.00 93 1019.1
20260506155402 51 173 0.9 1.7 0.00 0.00 0.00 93 1019.1
20260506153519 51 178 0.9 0.9 0.00 0.00 0.00 94 1019.3
20260506153017 51 137 0.0 2.6 0.00 0.00 0.00 94 1019.6
20260506152513 51 112 0.0 0.9 0.00 0.00 0.00 94 1019.3
20260506152011 51 157 1.7 5.2 0.00 0.00 0.00 94 1019.3
20260506151509 51 187 1.7 1.7 0.00 0.00 0.00 94 1019.4
20260506151006 51 140 0.0 1.7 0.00 0.00 0.00 94 1019.3
20260506150502 51 188 1.7 2.6 0.00 0.00 0.00 94 1018.9
20260506145959 51 165 0.0 0.9 0.00 0.00 0.00 94 1018.9
20260506145455 51 154 1.7 2.6 0.00 0.00 0.00 94 1019.0
20260506144953 51 158 1.7 1.7 0.00 0.00 0.00 93 1019.2
20260506144450 52 151 0.9 0.9 0.00 0.00 0.00 94 1019.1
20260506143948 51 175 0.9 2.6 0.00 0.00 0.00 93 1019.1
20260506143444 51 161 0.0 0.9 0.00 0.00 0.00 93 1019.2
20260506142943 51 144 0.0 0.9 0.00 0.00 0.00 93 1019.4
20260506142440 51 175 0.0 0.9 0.00 0.00 0.00 93 1019.2
20260506141939 51 149 0.0 1.7 0.00 0.00 0.00 93 1019.0
20260506141436 52 168 0.9 2.6 0.00 0.00 0.00 93 1019.0
20260506140935 51 167 0.9 1.7 0.00 0.00 0.00 93 1018.8
20260506140431 51 117 0.0 0.9 0.00 0.00 0.00 93 1018.7
20260506135928 52 196 1.7 2.6 0.00 0.00 0.00 92 1018.7
20260506135425 52 137 0.0 0.9 0.00 0.00 0.00 92 1018.8
20260506134921 51 146 0.0 0.9 0.00 0.00 0.00 92 1019.1
20260506134417 51 176 1.7 1.7 0.00 0.00 0.00 92 1019.1
20260506133915 51 124 0.0 2.6 0.00 0.00 0.00 91 1018.6
20260506133411 51 145 0.9 1.7 0.00 0.00 0.00 91 1018.8
20260506132908 52 164 1.7 1.7 0.00 0.00 0.00 91 1018.9
20260506132405 52 169 1.7 2.6 0.00 0.00 0.00 91 1019.2
20260506131903 52 148 0.0 0.9 0.00 0.00 0.00 90 1018.7
20260506131359 52 150 0.0 0.9 0.00 0.00 0.00 90 1018.6
20260506130856 52 127 0.0 0.9 0.00 0.00 0.00 90 1018.8
20260506130352 52 175 1.7 1.7 0.00 0.00 0.00 90 1018.3
20260506125850 52 152 0.9 2.6 0.00 0.00 0.00 90 1018.0
20260506125349 52 140 0.0 1.7 0.00 0.00 0.00 90 1018.5
20260506124847 52 128 0.0 1.7 0.00 0.00 0.00 90 1018.6
20260506124343 52 140 0.0 0.9 0.00 0.00 0.00 90 1018.3
20260506123841 52 149 0.0 0.9 0.00 0.00 0.00 90 1018.4
20260506123339 52 184 0.9 1.7 0.00 0.00 0.00 90 1018.5
20260506122836 52 159 0.9 1.7 0.00 0.00 0.00 90 1018.2
20260506122333 52 141 0.9 1.7 0.00 0.00 0.00 90 1018.2
20260506121831 52 147 0.0 0.9 0.00 0.00 0.00 90 1018.2
20260506121328 52 151 0.0 3.5 0.00 0.00 0.00 90 1018.3
20260506120825 52 236 1.7 2.6 0.00 0.00 0.00 90 1018.0
20260506120323 52 150 0.9 1.7 0.00 0.00 0.00 89 1018.1
20260506115820 52 158 0.9 0.9 0.00 0.00 0.00 89 1018.3
20260506115318 52 142 0.0 0.9 0.00 0.00 0.00 89 1018.0
20260506114816 52 167 1.7 2.6 0.00 0.00 0.00 89 1017.9
20260506114313 52 169 1.7 1.7 0.00 0.00 0.00 89 1017.9
20260506113812 52 172 0.9 2.6 0.00 0.00 0.00 89 1017.5
20260506113309 52 190 1.7 3.5 0.00 0.00 0.00 89 1018.0
20260506112805 52 157 0.0 0.9 0.00 0.00 0.00 88 1018.0
20260506112305 52 156 0.9 3.5 0.00 0.00 0.00 87 1018.1
20260506111800 53 188 0.9 3.5 0.00 0.00 0.00 87 1017.9
20260506111258 53 136 0.0 0.9 0.00 0.00 0.00 87 1017.8
20260506110755 53 194 1.7 2.6 0.00 0.00 0.00 87 1017.9
20260506110252 53 145 0.0 0.0 0.00 0.00 0.00 87 1017.9
20260506105749 53 156 0.0 1.7 0.00 0.00 0.00 87 1017.8